Time,TemperatureF,DewpointF,PressureIn,WindDirection,WindDirectionDegrees,WindSpeedMPH,WindSpeedGustMPH,Humidity,HourlyPrecipIn,Conditions,Clouds,dailyrainin,SoftwareType,DateUTC
2013-05-03 00:03:00,47.8,45.9,30.10,NE,45,4.0,11.0,93,0.01,,---,0.00,VWS V14.01,2013-05-03 05:03:00,
2013-05-03 00:10:00,47.7,45.8,30.10,ENE,58,8.0,13.0,93,0.01,,---,0.00,VWS V14.01,2013-05-03 05:10:00,
2013-05-03 00:18:00,47.6,45.7,30.10,ENE,57,5.0,8.0,93,0.02,,---,0.01,VWS V14.01,2013-05-03 05:18:00,
2013-05-03 00:25:00,47.5,45.6,30.09,ENE,61,0.0,10.0,93,0.02,,---,0.01,VWS V14.01,2013-05-03 05:25:00,
2013-05-03 00:27:00,47.6,45.7,30.09,ENE,74,3.0,10.0,93,0.02,,---,0.01,VWS V14.01,2013-05-03 05:27:00,
2013-05-03 00:33:00,47.7,46.1,30.09,NNW,335,3.0,8.0,94,0.01,,---,0.01,VWS V14.01,2013-05-03 05:33:00,
2013-05-03 00:40:00,47.6,46.0,30.09,NE,43,0.0,12.0,94,0.02,,---,0.02,VWS V14.01,2013-05-03 05:40:00,
2013-05-03 00:48:00,47.7,46.1,30.09,East,87,0.0,9.0,94,0.02,,---,0.02,VWS V14.01,2013-05-03 05:48:00,
2013-05-03 00:55:00,47.6,46.0,30.09,NE,49,0.0,12.0,94,0.02,,---,0.02,VWS V14.01,2013-05-03 05:55:00,
2013-05-03 01:03:00,47.7,46.1,30.08,NE,35,0.0,6.0,94,0.02,,---,0.02,VWS V14.01,2013-05-03 06:03:00,
2013-05-03 01:10:00,47.4,45.8,30.08,ENE,63,6.0,11.0,94,0.02,,---,0.02,VWS V14.01,2013-05-03 06:10:00,
2013-05-03 01:18:00,47.3,45.7,30.07,NE,40,0.0,10.0,94,0.02,,---,0.02,VWS V14.01,2013-05-03 06:18:00,
2013-05-03 01:25:00,47.3,45.7,30.07,NE,45,0.0,11.0,94,0.02,,---,0.02,VWS V14.01,2013-05-03 06:25:00,
2013-05-03 01:33:00,47.1,45.2,30.07,East,94,7.0,11.0,93,0.01,,---,0.02,VWS V14.01,2013-05-03 06:33:00,
2013-05-03 01:40:00,46.9,44.7,30.07,NNE,24,12.0,15.0,92,0.01,,---,0.02,VWS V14.01,2013-05-03 06:40:00,
2013-05-03 01:48:00,46.8,44.6,30.07,ENE,75,3.0,12.0,92,0.00,,---,0.02,VWS V14.01,2013-05-03 06:48:00,
2013-05-03 01:55:00,46.7,44.2,30.07,NNE,30,7.0,12.0,91,0.00,,---,0.02,VWS V14.01,2013-05-03 06:55:00,
2013-05-03 02:03:00,46.6,44.1,30.06,NNE,19,2.0,8.0,91,0.00,,---,0.02,VWS V14.01,2013-05-03 07:03:00,
2013-05-03 02:10:00,46.5,44.3,30.06,ENE,67,10.0,11.0,92,0.00,,---,0.02,VWS V14.01,2013-05-03 07:10:00,
2013-05-03 02:18:00,46.4,44.2,30.05,NE,50,4.0,19.0,92,0.00,,---,0.02,VWS V14.01,2013-05-03 07:18:00,
2013-05-03 02:25:00,46.3,44.1,30.06,NE,34,2.0,19.0,92,0.00,,---,0.02,VWS V14.01,2013-05-03 07:25:00,
2013-05-03 02:33:00,46.0,43.8,30.05,ENE,68,12.0,12.0,92,0.00,,---,0.02,VWS V14.01,2013-05-03 07:33:00,
2013-05-03 02:41:00,45.9,43.7,30.05,NE,40,3.0,12.0,92,0.01,,---,0.03,VWS V14.01,2013-05-03 07:41:00,
2013-05-03 02:48:00,45.8,43.6,30.05,NNE,19,2.0,11.0,92,0.02,,---,0.04,VWS V14.01,2013-05-03 07:48:00,
2013-05-03 02:56:00,45.6,43.7,30.06,NE,46,4.0,12.0,93,0.02,,---,0.04,VWS V14.01,2013-05-03 07:56:00,
2013-05-03 03:03:00,45.6,43.7,30.06,NE,35,4.0,7.0,93,0.02,,---,0.04,VWS V14.01,2013-05-03 08:03:00,
2013-05-03 03:11:00,45.7,44.1,30.06,East,84,0.0,7.0,94,0.02,,---,0.04,VWS V14.01,2013-05-03 08:11:00,
2013-05-03 03:18:00,45.5,43.6,30.05,North,10,4.0,11.0,93,0.02,,---,0.04,VWS V14.01,2013-05-03 08:18:00,
2013-05-03 03:26:00,45.3,43.4,30.05,NE,39,2.0,11.0,93,0.02,,---,0.04,VWS V14.01,2013-05-03 08:26:00,
2013-05-03 03:33:00,45.1,43.2,30.05,ENE,75,0.0,8.0,93,0.02,,---,0.04,VWS V14.01,2013-05-03 08:33:00,
2013-05-03 03:41:00,45.0,43.1,30.05,NNE,30,4.0,12.0,93,0.02,,---,0.04,VWS V14.01,2013-05-03 08:41:00,
2013-05-03 03:48:00,44.9,42.7,30.05,NNE,20,4.0,12.0,92,0.01,,---,0.04,VWS V14.01,2013-05-03 08:48:00,
2013-05-03 03:56:00,45.0,43.1,30.05,East,90,7.0,12.0,93,0.01,,---,0.04,VWS V14.01,2013-05-03 08:56:00,
2013-05-03 04:03:00,44.8,42.6,30.04,ENE,71,4.0,16.0,92,0.00,,---,0.04,VWS V14.01,2013-05-03 09:03:00,
2013-05-03 04:11:00,44.7,42.5,30.04,ENE,72,6.0,16.0,92,0.00,,---,0.04,VWS V14.01,2013-05-03 09:11:00,
2013-05-03 04:18:00,44.6,42.7,30.04,East,87,5.0,10.0,93,0.00,,---,0.04,VWS V14.01,2013-05-03 09:18:00,
2013-05-03 04:26:00,44.4,42.5,30.04,East,92,7.0,14.0,93,0.01,,---,0.05,VWS V14.01,2013-05-03 09:26:00,
2013-05-03 04:33:00,44.3,42.4,30.03,East,90,4.0,17.0,93,0.01,,---,0.05,VWS V14.01,2013-05-03 09:33:00,
2013-05-03 04:41:00,44.2,42.3,30.04,ENE,62,3.0,17.0,93,0.01,,---,0.05,VWS V14.01,2013-05-03 09:41:00,
2013-05-03 04:48:00,44.2,42.3,30.03,NE,51,8.0,14.0,93,0.01,,---,0.05,VWS V14.01,2013-05-03 09:48:00,
2013-05-03 04:56:00,44.2,42.3,30.03,East,97,1.0,14.0,93,0.01,,---,0.05,VWS V14.01,2013-05-03 09:56:00,
2013-05-03 05:03:00,44.2,42.6,30.04,ENE,73,7.0,12.0,94,0.01,,---,0.05,VWS V14.01,2013-05-03 10:03:00,
2013-05-03 05:11:00,44.1,42.5,30.04,NNE,20,4.0,12.0,94,0.02,,---,0.06,VWS V14.01,2013-05-03 10:11:00,
2013-05-03 05:18:00,44.0,42.4,30.03,NE,49,3.0,12.0,94,0.02,,---,0.06,VWS V14.01,2013-05-03 10:18:00,
2013-05-03 05:26:00,43.8,42.2,30.03,ENE,74,3.0,12.0,94,0.02,,---,0.06,VWS V14.01,2013-05-03 10:26:00,
2013-05-03 05:33:00,43.7,42.1,30.04,ENE,65,0.0,11.0,94,0.01,,---,0.06,VWS V14.01,2013-05-03 10:33:00,
2013-05-03 05:41:00,43.7,42.1,30.03,East,90,5.0,13.0,94,0.02,,---,0.07,VWS V14.01,2013-05-03 10:41:00,
2013-05-03 05:48:00,43.6,42.0,30.02,East,93,4.0,12.0,94,0.02,,---,0.07,VWS V14.01,2013-05-03 10:48:00,
2013-05-03 05:56:00,43.5,42.2,30.02,ENE,59,11.0,15.0,95,0.03,,---,0.08,VWS V14.01,2013-05-03 10:56:00,
2013-05-03 06:03:00,43.5,42.2,30.01,ENE,64,4.0,12.0,95,0.03,,---,0.08,VWS V14.01,2013-05-03 11:03:00,
2013-05-03 06:11:00,43.6,42.3,30.02,ENE,74,5.0,12.0,95,0.03,,---,0.08,VWS V14.01,2013-05-03 11:11:00,
2013-05-03 06:18:00,43.5,42.2,30.02,ENE,74,8.0,14.0,95,0.02,,---,0.08,VWS V14.01,2013-05-03 11:18:00,
2013-05-03 06:26:00,43.4,42.1,30.01,East,80,11.0,16.0,95,0.02,,---,0.08,VWS V14.01,2013-05-03 11:26:00,
2013-05-03 06:33:00,43.4,42.1,30.01,East,87,10.0,15.0,95,0.03,,---,0.09,VWS V14.01,2013-05-03 11:33:00,
2013-05-03 06:41:00,43.4,42.1,30.02,East,88,10.0,15.0,95,0.03,,---,0.09,VWS V14.01,2013-05-03 11:41:00,
2013-05-03 06:48:00,43.4,42.1,30.02,NNE,29,5.0,15.0,95,0.03,,---,0.10,VWS V14.01,2013-05-03 11:48:00,
2013-05-03 06:56:00,43.6,42.5,30.02,East,98,7.0,15.0,96,0.05,,---,0.12,VWS V14.01,2013-05-03 11:56:00,
2013-05-03 07:03:00,43.6,42.5,30.01,NNE,19,7.0,14.0,96,0.05,,---,0.13,VWS V14.01,2013-05-03 12:03:00,
2013-05-03 07:11:00,43.6,42.5,30.01,NE,52,5.0,14.0,96,0.05,,---,0.13,VWS V14.01,2013-05-03 12:11:00,
2013-05-03 07:18:00,43.6,42.5,30.01,ENE,62,14.0,14.0,96,0.06,,---,0.14,VWS V14.01,2013-05-03 12:18:00,
2013-05-03 07:26:00,43.6,42.5,30.01,ESE,105,11.0,15.0,96,0.06,,---,0.14,VWS V14.01,2013-05-03 12:26:00,
2013-05-03 07:34:00,43.7,42.6,30.01,East,96,13.0,13.0,96,0.05,,---,0.14,VWS V14.01,2013-05-03 12:34:00,
2013-05-03 07:41:00,43.8,42.7,30.01,ENE,76,6.0,16.0,96,0.05,,---,0.14,VWS V14.01,2013-05-03 12:41:00,
2013-05-03 07:49:00,43.9,42.8,30.01,ENE,69,3.0,15.0,96,0.04,,---,0.14,VWS V14.01,2013-05-03 12:49:00,
2013-05-03 07:56:00,44.0,42.9,30.00,NE,40,8.0,15.0,96,0.04,,---,0.14,VWS V14.01,2013-05-03 12:56:00,
2013-05-03 08:04:00,44.1,43.0,30.00,NE,35,6.0,15.0,96,0.01,,---,0.14,VWS V14.01,2013-05-03 13:04:00,
2013-05-03 08:11:00,44.3,43.2,30.00,ENE,66,12.0,18.0,96,0.01,,---,0.14,VWS V14.01,2013-05-03 13:11:00,
2013-05-03 08:19:00,44.5,43.4,30.00,East,97,4.0,14.0,96,0.01,,---,0.14,VWS V14.01,2013-05-03 13:19:00,
2013-05-03 08:26:00,44.6,43.5,30.00,ESE,118,6.0,14.0,96,0.01,,---,0.14,VWS V14.01,2013-05-03 13:26:00,
2013-05-03 08:34:00,44.9,43.8,30.00,East,92,7.0,12.0,96,0.01,,---,0.15,VWS V14.01,2013-05-03 13:34:00,
2013-05-03 08:41:00,45.2,44.4,30.00,ESE,111,1.0,12.0,97,0.01,,---,0.15,VWS V14.01,2013-05-03 13:41:00,
2013-05-03 08:49:00,45.4,44.6,30.00,SE,130,7.0,11.0,97,0.01,,---,0.15,VWS V14.01,2013-05-03 13:49:00,
2013-05-03 08:56:00,45.4,44.3,30.00,ENE,57,5.0,11.0,96,0.01,,---,0.15,VWS V14.01,2013-05-03 13:56:00,
2013-05-03 09:04:00,45.5,44.4,30.00,East,87,4.0,11.0,96,0.01,,---,0.15,VWS V14.01,2013-05-03 14:04:00,
2013-05-03 09:11:00,45.8,45.0,30.00,NE,39,6.0,13.0,97,0.01,,---,0.15,VWS V14.01,2013-05-03 14:11:00,
2013-05-03 09:19:00,46.1,45.0,30.00,East,94,5.0,14.0,96,0.01,,---,0.15,VWS V14.01,2013-05-03 14:19:00,
2013-05-03 09:26:00,46.3,45.2,30.00,ENE,63,0.0,14.0,96,0.01,,---,0.15,VWS V14.01,2013-05-03 14:26:00,
2013-05-03 09:34:00,46.4,45.3,29.99,East,90,11.0,13.0,96,0.02,,---,0.16,VWS V14.01,2013-05-03 14:34:00,
2013-05-03 09:41:00,46.8,45.7,29.99,SE,146,6.0,13.0,96,0.02,,---,0.16,VWS V14.01,2013-05-03 14:41:00,
2013-05-03 09:49:00,47.0,46.2,29.99,ENE,61,6.0,12.0,97,0.01,,---,0.16,VWS V14.01,2013-05-03 14:49:00,
2013-05-03 09:56:00,47.4,46.6,29.99,East,92,2.0,12.0,97,0.01,,---,0.16,VWS V14.01,2013-05-03 14:56:00,
2013-05-03 10:04:00,47.6,46.8,29.99,East,90,8.0,15.0,97,0.01,,---,0.16,VWS V14.01,2013-05-03 15:04:00,
2013-05-03 10:11:00,48.0,47.2,29.99,ESE,123,0.0,15.0,97,0.02,,---,0.17,VWS V14.01,2013-05-03 15:11:00,
2013-05-03 10:19:00,48.1,47.0,29.99,East,85,2.0,13.0,96,0.03,,---,0.18,VWS V14.01,2013-05-03 15:19:00,
2013-05-03 10:26:00,48.3,47.5,29.99,NNE,32,4.0,13.0,97,0.04,,---,0.19,VWS V14.01,2013-05-03 15:26:00,
2013-05-03 10:34:00,48.7,47.9,29.98,NE,56,0.0,9.0,97,0.04,,---,0.19,VWS V14.01,2013-05-03 15:34:00,
2013-05-03 10:41:00,49.2,48.4,29.98,East,86,0.0,9.0,97,0.04,,---,0.19,VWS V14.01,2013-05-03 15:41:00,
2013-05-03 10:49:00,49.6,48.8,29.98,ESE,102,0.0,7.0,97,0.03,,---,0.19,VWS V14.01,2013-05-03 15:49:00,
2013-05-03 10:56:00,50.1,49.3,29.98,ENE,68,1.0,9.0,97,0.03,,---,0.19,VWS V14.01,2013-05-03 15:56:00,
2013-05-03 11:04:00,50.5,49.7,29.98,ENE,69,3.0,6.0,97,0.03,,---,0.19,VWS V14.01,2013-05-03 16:04:00,
2013-05-03 11:11:00,51.2,50.4,29.97,ENE,76,1.0,8.0,97,0.03,,---,0.19,VWS V14.01,2013-05-03 16:11:00,
2013-05-03 11:19:00,52.4,51.8,29.97,NE,36,0.0,9.0,98,0.02,,---,0.19,VWS V14.01,2013-05-03 16:19:00,
2013-05-03 11:26:00,53.5,53.0,29.97,ESE,119,0.0,9.0,98,0.02,,---,0.19,VWS V14.01,2013-05-03 16:26:00,
2013-05-03 11:34:00,54.4,53.8,29.97,SE,145,0.0,7.0,98,0.00,,---,0.19,VWS V14.01,2013-05-03 16:34:00,
2013-05-03 11:41:00,55.1,54.3,29.97,ENE,74,7.0,8.0,97,0.00,,---,0.19,VWS V14.01,2013-05-03 16:41:00,
2013-05-03 11:49:00,55.5,54.7,29.97,East,101,0.0,8.0,97,0.00,,---,0.19,VWS V14.01,2013-05-03 16:49:00,
2013-05-03 11:56:00,56.3,55.5,29.97,ESE,119,0.0,8.0,97,0.00,,---,0.19,VWS V14.01,2013-05-03 16:56:00,
2013-05-03 12:04:00,57.4,56.6,29.96,SE,130,5.0,6.0,97,0.00,,---,0.19,VWS V14.01,2013-05-03 17:04:00,
2013-05-03 12:11:00,58.5,57.4,29.96,SSE,156,0.0,9.0,96,0.00,,---,0.19,VWS V14.01,2013-05-03 17:11:00,
2013-05-03 12:19:00,59.4,58.0,29.96,East,96,2.0,7.0,95,0.00,,---,0.19,VWS V14.01,2013-05-03 17:19:00,
2013-05-03 12:27:00,60.1,58.4,29.95,SE,135,1.0,11.0,94,0.00,,---,0.19,VWS V14.01,2013-05-03 17:27:00,
2013-05-03 12:34:00,61.3,59.3,29.95,ESE,117,5.0,17.0,93,0.00,,---,0.19,VWS V14.01,2013-05-03 17:34:00,
2013-05-03 12:42:00,62.4,59.7,29.95,SE,125,9.0,17.0,91,0.00,,---,0.19,VWS V14.01,2013-05-03 17:42:00,
2013-05-03 12:49:00,62.9,59.6,29.95,SE,139,7.0,15.0,89,0.00,,---,0.19,VWS V14.01,2013-05-03 17:49:00,
2013-05-03 12:57:00,63.3,60.0,29.94,SSE,165,10.0,15.0,89,0.00,,---,0.19,VWS V14.01,2013-05-03 17:57:00,
2013-05-03 13:04:00,63.2,59.9,29.94,SE,140,6.0,9.0,89,0.00,,---,0.19,VWS V14.01,2013-05-03 18:04:00,
2013-05-03 13:12:00,62.9,59.9,29.94,SE,145,4.0,9.0,90,0.00,,---,0.19,VWS V14.01,2013-05-03 18:12:00,
2013-05-03 13:19:00,63.0,60.3,29.93,East,94,4.0,8.0,91,0.00,,---,0.19,VWS V14.01,2013-05-03 18:19:00,
2013-05-03 13:27:00,63.4,60.7,29.93,SSE,153,4.0,8.0,91,0.00,,---,0.19,VWS V14.01,2013-05-03 18:27:00,
2013-05-03 13:34:00,64.0,61.3,29.93,South,191,3.0,12.0,91,0.00,,---,0.19,VWS V14.01,2013-05-03 18:34:00,
2013-05-03 13:42:00,64.3,61.3,29.93,ESE,109,0.0,12.0,90,0.00,,---,0.19,VWS V14.01,2013-05-03 18:42:00,
2013-05-03 13:49:00,64.4,61.4,29.93,ENE,58,0.0,10.0,90,0.00,,---,0.19,VWS V14.01,2013-05-03 18:49:00,
2013-05-03 13:57:00,64.3,61.0,29.92,ESE,117,0.0,10.0,89,0.00,,---,0.19,VWS V14.01,2013-05-03 18:57:00,
2013-05-03 14:04:00,64.6,61.6,29.92,East,85,0.0,5.0,90,0.00,,---,0.19,VWS V14.01,2013-05-03 19:04:00,
2013-05-03 14:12:00,64.8,61.8,29.92,SSE,161,0.0,8.0,90,0.00,,---,0.19,VWS V14.01,2013-05-03 19:12:00,
2013-05-03 14:19:00,64.6,61.9,29.92,SE,128,8.0,11.0,91,0.01,,---,0.20,VWS V14.01,2013-05-03 19:19:00,
2013-05-03 14:27:00,64.3,61.6,29.92,South,170,0.0,11.0,91,0.01,,---,0.20,VWS V14.01,2013-05-03 19:27:00,
2013-05-03 14:34:00,64.2,61.8,29.91,South,188,0.0,4.0,92,0.01,,---,0.20,VWS V14.01,2013-05-03 19:34:00,
2013-05-03 14:42:00,64.1,61.7,29.91,East,98,0.0,5.0,92,0.01,,---,0.20,VWS V14.01,2013-05-03 19:42:00,
2013-05-03 14:49:00,64.0,61.9,29.91,East,86,2.0,6.0,93,0.02,,---,0.21,VWS V14.01,2013-05-03 19:49:00,
2013-05-03 14:57:00,63.7,61.6,29.90,SE,140,4.0,8.0,93,0.04,,---,0.23,VWS V14.01,2013-05-03 19:57:00,
2013-05-03 15:05:00,63.6,61.8,29.90,ENE,78,0.0,6.0,94,0.04,,---,0.23,VWS V14.01,2013-05-03 20:05:00,
2013-05-03 15:12:00,63.7,62.0,29.90,East,94,0.0,12.0,94,0.04,,---,0.23,VWS V14.01,2013-05-03 20:12:00,
2013-05-03 15:20:00,63.9,62.4,29.91,SSW,192,4.0,9.0,95,0.04,,---,0.23,VWS V14.01,2013-05-03 20:20:00,
2013-05-03 15:27:00,63.8,62.0,29.90,SW,229,0.0,9.0,94,0.04,,---,0.23,VWS V14.01,2013-05-03 20:27:00,
2013-05-03 15:35:00,63.8,62.3,29.90,SSE,168,0.0,6.0,95,0.03,,---,0.23,VWS V14.01,2013-05-03 20:35:00,
2013-05-03 15:42:00,63.9,62.1,29.90,SSE,155,0.0,6.0,94,0.03,,---,0.23,VWS V14.01,2013-05-03 20:42:00,
2013-05-03 15:50:00,64.2,62.7,29.90,SE,139,0.0,5.0,95,0.03,,---,0.23,VWS V14.01,2013-05-03 20:50:00,
2013-05-03 15:57:00,64.6,62.8,29.90,SSE,162,2.0,5.0,94,0.03,,---,0.23,VWS V14.01,2013-05-03 20:57:00,
2013-05-03 16:05:00,65.2,62.5,29.89,South,179,7.0,11.0,91,0.00,,---,0.23,VWS V14.01,2013-05-03 21:05:00,
2013-05-03 16:12:00,66.0,62.3,29.89,SSE,159,10.0,11.0,88,0.00,,---,0.23,VWS V14.01,2013-05-03 21:12:00,
2013-05-03 16:20:00,66.5,62.2,29.89,SSE,150,6.0,13.0,86,0.00,,---,0.23,VWS V14.01,2013-05-03 21:20:00,
2013-05-03 16:27:00,66.6,61.6,29.89,SE,140,8.0,17.0,84,0.00,,---,0.23,VWS V14.01,2013-05-03 21:27:00,
2013-05-03 16:35:00,66.5,61.2,29.89,ESE,123,6.0,14.0,83,0.00,,---,0.23,VWS V14.01,2013-05-03 21:35:00,
2013-05-03 16:42:00,66.4,61.1,29.89,ESE,121,5.0,14.0,83,0.00,,---,0.23,VWS V14.01,2013-05-03 21:42:00,
2013-05-03 16:50:00,66.4,60.7,29.89,ENE,71,0.0,8.0,82,0.00,,---,0.23,VWS V14.01,2013-05-03 21:50:00,
2013-05-03 16:57:00,66.5,61.2,29.88,ESE,113,2.0,9.0,83,0.00,,---,0.23,VWS V14.01,2013-05-03 21:57:00,
2013-05-03 17:05:00,66.8,61.1,29.88,ESE,117,0.0,10.0,82,0.00,,---,0.23,VWS V14.01,2013-05-03 22:05:00,
2013-05-03 17:12:00,67.1,61.4,29.88,SE,142,0.0,10.0,82,0.00,,---,0.23,VWS V14.01,2013-05-03 22:12:00,
2013-05-03 17:20:00,67.4,61.0,29.88,East,80,11.0,11.0,80,0.00,,---,0.23,VWS V14.01,2013-05-03 22:20:00,
2013-05-03 17:27:00,67.5,60.8,29.87,ESE,108,4.0,12.0,79,0.00,,---,0.23,VWS V14.01,2013-05-03 22:27:00,
2013-05-03 17:35:00,67.4,60.7,29.87,SE,145,0.0,11.0,79,0.00,,---,0.23,VWS V14.01,2013-05-03 22:35:00,
2013-05-03 17:42:00,67.3,60.2,29.87,East,86,6.0,11.0,78,0.00,,---,0.23,VWS V14.01,2013-05-03 22:42:00,
2013-05-03 17:50:00,67.3,60.2,29.86,East,95,0.0,9.0,78,0.00,,---,0.23,VWS V14.01,2013-05-03 22:50:00,
2013-05-03 17:57:00,67.3,60.2,29.86,SE,128,0.0,9.0,78,0.00,,---,0.23,VWS V14.01,2013-05-03 22:57:00,
2013-05-03 18:05:00,67.3,60.2,29.86,ESE,109,7.0,10.0,78,0.00,,---,0.23,VWS V14.01,2013-05-03 23:05:00,
2013-05-03 18:12:00,67.2,60.5,29.86,East,101,1.0,10.0,79,0.00,,---,0.23,VWS V14.01,2013-05-03 23:12:00,
2013-05-03 18:20:00,67.2,60.5,29.86,NNE,33,0.0,9.0,79,0.00,,---,0.23,VWS V14.01,2013-05-03 23:20:00,
2013-05-03 18:27:00,67.1,60.4,29.86,NE,45,0.0,13.0,79,0.00,,---,0.23,VWS V14.01,2013-05-03 23:27:00,
2013-05-03 18:35:00,67.0,60.3,29.85,East,88,2.0,8.0,79,0.00,,---,0.23,VWS V14.01,2013-05-03 23:35:00,
2013-05-03 18:42:00,66.9,60.2,29.85,East,91,5.0,8.0,79,0.00,,---,0.23,VWS V14.01,2013-05-03 23:42:00,
2013-05-03 18:50:00,66.9,60.2,29.86,ENE,57,0.0,6.0,79,0.00,,---,0.23,VWS V14.01,2013-05-03 23:50:00,
2013-05-03 18:57:00,66.9,60.2,29.86,ENE,67,0.0,9.0,79,0.00,,---,0.23,VWS V14.01,2013-05-03 23:57:00,
2013-05-03 19:05:00,66.7,60.3,29.86,NE,43,0.0,6.0,80,0.00,,---,0.23,VWS V14.01,2013-05-04 00:05:00,
2013-05-03 19:12:00,66.5,60.5,29.86,East,94,0.0,6.0,81,0.00,,---,0.23,VWS V14.01,2013-05-04 00:12:00,
2013-05-03 19:20:00,66.4,60.4,29.86,ENE,72,2.0,5.0,81,0.00,,---,0.23,VWS V14.01,2013-05-04 00:20:00,
2013-05-03 19:27:00,66.4,60.4,29.86,NE,46,0.0,7.0,81,0.00,,---,0.23,VWS V14.01,2013-05-04 00:27:00,
2013-05-03 19:35:00,66.4,60.7,29.86,East,101,9.0,9.0,82,0.00,,---,0.23,VWS V14.01,2013-05-04 00:35:00,
2013-05-03 19:42:00,66.3,60.7,29.86,ENE,69,2.0,9.0,82,0.00,,---,0.23,VWS V14.01,2013-05-04 00:42:00,
2013-05-03 19:50:00,66.3,61.0,29.86,East,92,0.0,8.0,83,0.00,,---,0.23,VWS V14.01,2013-05-04 00:50:00,
2013-05-03 19:57:00,66.2,60.9,29.86,ENE,71,0.0,8.0,83,0.00,,---,0.23,VWS V14.01,2013-05-04 00:57:00,
2013-05-03 20:05:00,66.2,60.9,29.86,ENE,73,0.0,8.0,83,0.00,,---,0.23,VWS V14.01,2013-05-04 01:05:00,
2013-05-03 20:12:00,66.2,60.9,29.86,East,95,2.0,12.0,83,0.00,,---,0.23,VWS V14.01,2013-05-04 01:12:00,
2013-05-03 20:20:00,66.2,60.9,29.86,NE,51,1.0,7.0,83,0.00,,---,0.23,VWS V14.01,2013-05-04 01:20:00,
2013-05-03 20:27:00,66.2,61.2,29.87,ENE,63,0.0,9.0,84,0.00,,---,0.23,VWS V14.01,2013-05-04 01:27:00,
2013-05-03 20:35:00,66.2,61.2,29.87,NNE,23,0.0,8.0,84,0.00,,---,0.23,VWS V14.01,2013-05-04 01:35:00,
2013-05-03 20:42:00,66.1,61.1,29.87,NE,52,5.0,8.0,84,0.00,,---,0.23,VWS V14.01,2013-05-04 01:42:00,
2013-05-03 20:50:00,65.2,60.6,29.87,East,92,4.0,13.0,85,0.00,,---,0.23,VWS V14.01,2013-05-04 01:50:00,
2013-05-03 20:57:00,63.6,59.3,29.87,ENE,60,13.0,15.0,86,0.00,,---,0.23,VWS V14.01,2013-05-04 01:57:00,
2013-05-03 21:05:00,62.4,58.5,29.88,NE,40,6.0,13.0,87,0.00,,---,0.23,VWS V14.01,2013-05-04 02:05:00,
2013-05-03 21:12:00,61.7,58.1,29.88,ENE,60,1.0,13.0,88,0.00,,---,0.23,VWS V14.01,2013-05-04 02:12:00,
2013-05-03 21:20:00,61.4,58.1,29.88,East,81,1.0,11.0,89,0.00,,---,0.23,VWS V14.01,2013-05-04 02:20:00,
2013-05-03 21:27:00,61.3,58.0,29.88,NE,44,0.0,11.0,89,0.00,,---,0.23,VWS V14.01,2013-05-04 02:27:00,
2013-05-03 21:35:00,61.2,57.9,29.88,ENE,67,4.0,11.0,89,0.00,,---,0.23,VWS V14.01,2013-05-04 02:35:00,
2013-05-03 21:42:00,61.3,58.0,29.88,East,83,0.0,12.0,89,0.00,,---,0.23,VWS V14.01,2013-05-04 02:42:00,
2013-05-03 21:50:00,61.4,58.1,29.88,ENE,63,6.0,7.0,89,0.00,,---,0.23,VWS V14.01,2013-05-04 02:50:00,
2013-05-03 21:57:00,61.4,58.1,29.88,East,101,0.0,8.0,89,0.00,,---,0.23,VWS V14.01,2013-05-04 02:57:00,
2013-05-03 22:05:00,61.2,58.2,29.88,NE,36,6.0,8.0,90,0.00,,---,0.23,VWS V14.01,2013-05-04 03:05:00,
2013-05-03 22:12:00,61.1,58.2,29.87,NE,53,0.0,8.0,90,0.00,,---,0.23,VWS V14.01,2013-05-04 03:12:00,
2013-05-03 22:20:00,61.0,58.0,29.87,East,87,0.0,8.0,90,0.00,,---,0.23,VWS V14.01,2013-05-04 03:20:00,
2013-05-03 22:27:00,60.9,58.3,29.87,NE,52,0.0,8.0,91,0.00,,---,0.23,VWS V14.01,2013-05-04 03:27:00,
2013-05-03 22:35:00,60.9,58.3,29.87,East,91,0.0,7.0,91,0.00,,---,0.23,VWS V14.01,2013-05-04 03:35:00,
2013-05-03 22:42:00,61.0,58.7,29.88,ENE,69,0.0,7.0,92,0.00,,---,0.23,VWS V14.01,2013-05-04 03:42:00,
2013-05-03 22:50:00,61.3,59.0,29.91,SE,133,6.0,8.0,92,0.00,,---,0.23,VWS V14.01,2013-05-04 03:50:00,
2013-05-03 22:57:00,61.7,59.7,29.92,ESE,114,16.0,26.0,93,0.02,,---,0.25,VWS V14.01,2013-05-04 03:57:00,
2013-05-03 23:05:00,61.4,59.1,29.92,SSE,164,12.0,28.0,92,0.05,,---,0.28,VWS V14.01,2013-05-04 04:05:00,
2013-05-03 23:12:00,61.0,59.0,29.92,SE,139,5.0,28.0,93,0.05,,---,0.28,VWS V14.01,2013-05-04 04:12:00,
2013-05-03 23:20:00,60.5,58.5,29.91,SSE,163,4.0,13.0,93,0.06,,---,0.29,VWS V14.01,2013-05-04 04:20:00,
2013-05-03 23:27:00,60.3,58.3,29.91,South,183,0.0,15.0,93,0.06,,---,0.29,VWS V14.01,2013-05-04 04:27:00,
2013-05-03 23:35:00,60.2,58.5,29.91,SSE,157,7.0,11.0,94,0.07,,---,0.30,VWS V14.01,2013-05-04 04:35:00,
2013-05-03 23:42:00,60.2,58.5,29.91,SE,134,7.0,14.0,94,0.07,,---,0.30,VWS V14.01,2013-05-04 04:42:00,
2013-05-03 23:50:00,60.2,58.5,29.92,SE,130,7.0,19.0,94,0.07,,---,0.30,VWS V14.01,2013-05-04 04:50:00,
2013-05-03 23:57:00,60.0,58.3,29.92,SE,124,9.0,19.0,94,0.07,,---,0.00,VWS V14.01,2013-05-04 04:57:00,
2013-05-03 23:58:00,60.0,58.3,29.92,SE,136,10.0,17.0,94,0.05,,---,0.00,VWS V14.01,2013-05-04 04:58:00,